Location: Ladrillo (historical)
(32.8195°N, 117.2231°W)
Time: 02:13:35
(UTC+00:00)

Cosmos 1726 Rocket - Pass Details

Date: 29 October 2020
Orbit: 603 x 629 km, 82.5° (Epoch: 26 November)

Event Time Altitude Azimuth Distance (km) Brightness Sun altitude
Rises 12:58:44 0° 346° (NNW) 2,919 6.8 -14.4°
Reaches altitude 10° 13:01:02 10° 340° (NNW) 2,009 5.9 -13.9°
Maximum altitude 13:05:17 46° 268° (W) 851 3.8 -13.0°
Drops below altitude 10° 13:09:30 10° 195° (SSW) 1,996 6.1 -12.2°
Sets 13:11:48 0° 189° (S) 2,897 7.0 -11.7°
